Weather in Zelenyy Bor

Russia / Tambov Oblast     53°40′52″N   41°51′30″E
temp.,
°C
wind,
m/s
gust,
m/s
humid.,
%
clouds,
%
prec.,
mm/h
press.,
hPa
HPBL,
m
27 september, mon
mon2700:00+8nne41194100 0.4 1008408
03:00+9n61193100 0.6 1010552
06:00+9n71391100 0.1 1012656
09:00+8n61287100 0.2 1014586
12:00+11n687391 0.0 10151015
15:00+12n6871100 0.3 10161033
18:00+10n5987100 0.6 1017488
21:00+8ne6990100 1.4 1018716
28 september, tue
tue2800:00+7ne5892100 0.6 1020687
03:00+6ne5791100 0.9 1022847
06:00+5ne5895100 0.1 1024881
09:00+5ne6985100 0.2 1026825
12:00+6ene5876100 0.0 10271023
15:00+9ene475758 0.0 10281376
18:00+6ne34655 0.0 103058
21:00+4nne37735 0.0 1031130
29 september, wed
wed2900:00+3ne34780 0.0 103273
03:00+2nne34825 0.0 103372
06:00+1n3683100 0.0 1033124
09:00+6nne466456 0.0 1034394
12:00+9nne454944 0.0 10331113
15:00+10nne4445100 0.0 10331361
18:00+7n3560100 0.0 103390
21:00+5nne23675 0.0 103432
30 september, thu
thu3000:00+4ne22728 0.0 103416
03:00+3n227555 0.0 103516
06:00+3n22785 0.0 103621
09:00+7nne22625 0.0 1036271
12:00+10nne22495 0.0 1035955
15:00+11n22486 0.0 10351290
18:00+8n226313 0.0 103511
21:00+7nnw1167100 0.0 103510
1 october, fri
fri100:00+6wnw11725 0.0 103610
03:00+5wnw22795 0.0 103613
06:00+5nw238317 0.0 103631
09:00+8nw3469100 0.0 1036215
12:00+12nw345998 0.0 1036619
15:00+13nw345679 0.0 1035892
18:00+11nw226642 0.0 103516
21:00+8nw22765 0.0 103523